Tracking 18980 objects as of 21-Feb-2018
HD Live streaming from Space Station
objects crossing your sky now

FENGYUN 1C DEB

Track FENGYUN 1C DEB now!
10-day predictions


NORAD ID: 31244
Int'l Code: 1999-025BMA
Perigee: 812.6 km
Apogee: 968.0 km
Inclination: 99.3 °
Period: 102.6 minutes
Semi major axis: 7261 km
RCS: 0.0089 m2 (small)
Launch date: May 10, 1999
Source: People's Republic of China (PRC)
Launch site: Taiyaun Space Center, China (TSC)

Note: This is SATELLITE DEBRIS
aabbcc
Your satellite tracking list
Your tracking list is empty




NASA's NSSDC Master Catalog

Two Line Element Set (TLE):
1 31244U 99025BMA 18039.75280773 +.00000337 +00000-0 +23406-3 0  9990
2 31244 099.2630 033.8986 0107013 176.3789 183.8175 14.03071761174505
Source of the keplerian elements: AFSPC